星链-37964(STARLINK-37964)

导读

STARLINK-37964(NORAD编号69958)是美国太空探索技术公司(SpaceX)星链低轨通信星座的成员卫星,归属星链第二/第三代部署序列,2026年上半年完成发射入轨,运行于近地轨道,承担全球卫星互联网接入服务任务。作为SpaceX星链组网的组成部分,该卫星与在轨超1万颗星链卫星协同,为全球150余个国家和地区的超1000万用户提供低时延、高速率的天基网络服务,目前在轨运行状态稳定,无公开异常记录。

基本信息
目录编号:
69958
目录名称:
STARLINK-37964
国际标识:
2026-157R
轨道中心:
EARTH
卫星名称:
星链-37964
卫星全名:
星链-37964(STARLINK-37964)
卫星状态:
在轨 (已飞行58 天)
发射日期:
2026-07-09 UTC
国别 :
美国 (US)
星等 :
--
轨道信息
数据来源 国际轨道数据
星历时间: 2026-09-05T06:00:02+0800
8小时前
查看轨道信息
半长轴: 6840.833km
偏心率: 0.0001141
轨道倾角: 53.160°
近地点辐角 58.903°
升交点赤经 46.904°
平近点角 23.922°
近地点: 461.915km
远地点: 463.477km
周期: 93.848分钟
每日圈数: 15.344025
详细信息
固有亮度:
5
最大亮度:
2.5
卫星平台:
Starlink V1.0
覆盖范围:
全球
运营商:
太空探索技术公司
运营商所在国:
美国
制造商(研发单位):
太空探索技术公司
制造商所在国:
美国
使用方式:
暂无
卫星简介
Starlink 计划是 SpaceX 推出的全球卫星互联网项目,通过发射低轨道卫星,为全球尤其是偏远地区提供高速、低延迟的互联网服务。自 2019 年起,Starlink 已部署数千颗卫星,旨在缩小全球数字鸿沟,推动互联网普及。该项目还为军事、航空等行业提供通信支持,带来广泛经济效益。
2D轨道图
3D轨道图
轨道高度分析图
轨道倾角分析图
轨道综合分析图
查看轨道综合分析图